DW4879 Weather Reports


Display with metric or nautical units.
time (UTC)temp
F
wind
direction
speed
MPH
gust
MPH
rain 1hr
in
rain 24hr
in
rain mn
in
humidity
%
barometer
mb
20260507164057 57 53 2.0 6.0 0.00 0.00 0.00 24 1023.0
20260507163606 57 57 3.0 6.0 0.00 0.00 0.00 26 1023.0
20260507163006 58 99 3.0 6.0 0.00 0.00 0.00 25 1023.1
20260507162602 58 191 2.0 5.0 0.00 0.00 0.00 26 1023.3
20260507162005 57 82 1.0 5.0 0.00 0.00 0.00 26 1023.3
20260507161600 56 168 3.0 5.0 0.00 0.00 0.00 27 1023.4
20260507161105 55 77 2.0 5.0 0.00 0.00 0.00 28 1023.4
20260507160556 55 97 2.0 6.0 0.00 0.00 0.00 28 1023.5
20260507160047 55 161 2.0 6.0 0.00 0.00 0.00 28 1023.5
20260507155554 54 136 2.0 7.0 0.00 0.00 0.00 29 1023.5
20260507155104 54 76 4.0 8.0 0.00 0.00 0.00 29 1023.5
20260507154504 53 103 4.0 9.0 0.00 0.00 0.00 30 1023.5
20260507154100 53 99 3.0 9.0 0.00 0.00 0.00 30 1023.5
20260507153504 52 124 4.0 10.0 0.00 0.00 0.00 30 1023.6
20260507153058 51 102 5.0 10.0 0.00 0.00 0.00 31 1023.6
20260507152552 51 103 7.0 10.0 0.00 0.00 0.00 30 1023.7
20260507152057 51 101 4.0 12.0 0.00 0.00 0.00 31 1023.7
20260507151605 50 137 5.0 12.0 0.00 0.00 0.00 32 1023.7
20260507151005 50 101 4.0 9.0 0.00 0.00 0.00 32 1023.7
20260507150601 49 100 5.0 10.0 0.00 0.00 0.00 33 1023.7
20260507150006 48 136 5.0 11.0 0.00 0.00 0.00 34 1023.8
20260507145601 48 88 7.0 11.0 0.00 0.00 0.00 34 1023.8
20260507145003 47 67 4.0 12.0 0.00 0.00 0.00 35 1023.9
20260507144600 47 97 6.0 12.0 0.00 0.00 0.00 35 1023.9
20260507144049 47 76 7.0 12.0 0.00 0.00 0.00 35 1023.9
20260507143555 46 69 5.0 12.0 0.00 0.00 0.00 36 1024.0
20260507143111 46 108 5.0 11.0 0.00 0.00 0.00 37 1023.9
20260507142504 45 90 6.0 11.0 0.00 0.00 0.00 36 1024.0
20260507142058 45 100 7.0 10.0 0.00 0.00 0.00 36 1023.9
20260507141502 44 86 5.0 11.0 0.00 0.00 0.00 37 1023.8
20260507141100 43 93 6.0 11.0 0.00 0.00 0.00 36 1023.8
20260507140606 43 109 5.0 11.0 0.00 0.00 0.00 36 1023.7
20260507140058 42 91 6.0 11.0 0.00 0.00 0.00 36 1023.8
20260507135604 41 71 6.0 10.0 0.00 0.00 0.00 36 1023.7
20260507135007 41 78 5.0 9.0 0.00 0.00 0.00 37 1023.7
20260507134603 40 96 5.0 8.0 0.00 0.00 0.00 38 1023.7
20260507134006 39 94 4.0 8.0 0.00 0.00 0.00 40 1023.6
20260507133513 38 107 4.0 8.0 0.00 0.00 0.00 41 1023.6
20260507133022 37 100 4.0 9.0 0.00 0.00 0.00 43 1023.6
20260507132524 37 107 5.0 9.0 0.00 0.00 0.00 43 1023.6
20260507132032 36 131 5.0 9.0 0.00 0.00 0.00 44 1023.6
20260507131552 36 98 5.0 11.0 0.00 0.00 0.00 44 1023.6
20260507131048 35 101 5.0 11.0 0.00 0.00 0.00 45 1023.6
20260507130537 35 132 5.0 10.0 0.00 0.00 0.00 45 1023.5
20260507130045 35 113 6.0 10.0 0.00 0.00 0.00 46 1023.5
20260507125552 34 92 5.0 8.0 0.00 0.00 0.00 47 1023.5
20260507125059 34 107 5.0 8.0 0.00 0.00 0.00 49 1023.4
20260507124550 33 72 4.0 7.0 0.00 0.00 0.00 52 1023.4
20260507124059 33 103 4.0 7.0 0.00 0.00 0.00 53 1023.4
20260507123604 32 112 3.0 6.0 0.00 0.00 0.00 51 1023.5
20260507123006 32 105 3.0 6.0 0.00 0.00 0.00 50 1023.5
20260507122602 32 113 2.0 4.0 0.00 0.00 0.00 51 1023.5
20260507122006 31 84 1.0 3.0 0.00 0.00 0.00 53 1023.4
20260507121602 31 95 1.0 3.0 0.00 0.00 0.00 52 1023.4
20260507121002 31 89 1.0 3.0 0.00 0.00 0.00 51 1023.3
20260507120557 31 100 2.0 2.0 0.00 0.00 0.00 51 1023.3
20260507120048 31 99 2.0 2.0 0.00 0.00 0.00 50 1023.4
20260507115557 31 100 2.0 3.0 0.00 0.00 0.00 50 1023.4
20260507115101 32 100 2.0 3.0 0.00 0.00 0.00 50 1023.3
20260507114505 32 100 2.0 3.0 0.00 0.00 0.00 49 1023.3
20260507114100 32 98 1.0 3.0 0.00 0.00 0.00 49 1023.3
20260507113504 32 98 2.0 4.0 0.00 0.00 0.00 49 1023.3
20260507113102 32 101 3.0 4.0 0.00 0.00 0.00 48 1023.2
20260507112553 32 97 2.0 4.0 0.00 0.00 0.00 48 1023.2
20260507112100 32 101 3.0 3.0 0.00 0.00 0.00 47 1023.2
20260507111549 32 95 2.0 3.0 0.00 0.00 0.00 46 1023.1
20260507111056 33 104 2.0 4.0 0.00 0.00 0.00 46 1023.1
20260507110603 33 90 2.0 4.0 0.00 0.00 0.00 46 1023.3
20260507110008 33 95 2.0 3.0 0.00 0.00 0.00 45 1023.2
20260507105558 33 92 2.0 3.0 0.00 0.00 0.00 45 1023.1
20260507105104 34 110 2.0 4.0 0.00 0.00 0.00 44 1023.2
20260507104555 34 98 2.0 4.0 0.00 0.00 0.00 44 1023.1
20260507104045 34 111 2.0 4.0 0.00 0.00 0.00 43 1023.1
20260507103554 35 102 2.0 4.0 0.00 0.00 0.00 43 1023.0
20260507103100 36 107 2.0 3.0 0.00 0.00 0.00 42 1023.0
20260507102503 36 105 2.0 3.0 0.00 0.00 0.00 41 1023.0
20260507102102 36 90 2.0 3.0 0.00 0.00 0.00 41 1023.1
20260507101502 37 86 2.0 5.0 0.00 0.00 0.00 41 1023.1
20260507101057 37 84 2.0 5.0 0.00 0.00 0.00 40 1023.0
20260507100604 37 77 3.0 5.0 0.00 0.00 0.00 39 1022.9
20260507100049 37 95 3.0 5.0 0.00 0.00 0.00 39 1022.9
20260507095557 37 57 2.0 6.0 0.00 0.00 0.00 40 1022.9
20260507095104 36 55 4.0 6.0 0.00 0.00 0.00 40 1022.8
20260507094503 36 36 1.0 4.0 0.00 0.00 0.00 41 1022.8
20260507094101 36 38 2.0 4.0 0.00 0.00 0.00 41 1022.8
20260507093501 36 55 0.0 2.0 0.00 0.00 0.00 40 1022.8
20260507093101 36 55 1.0 3.0 0.00 0.00 0.00 41 1022.9
20260507092550 36 55 2.0 3.0 0.00 0.00 0.00 41 1022.8
20260507092056 36 36 1.0 3.0 0.00 0.00 0.00 41 1022.8
20260507091604 36 36 1.0 4.0 0.00 0.00 0.00 41 1022.8
20260507091005 36 32 1.0 5.0 0.00 0.00 0.00 41 1022.7
20260507090514 36 28 2.0 5.0 0.00 0.00 0.00 41 1022.6
20260507090021 36 26 2.0 4.0 0.00 0.00 0.00 41 1022.8
20260507085524 36 24 1.0 4.0 0.00 0.00 0.00 40 1022.7
20260507085032 37 18 3.0 4.0 0.00 0.00 0.00 40 1022.5
20260507084538 37 347 1.0 3.0 0.00 0.00 0.00 40 1022.6
20260507084045 37 348 1.0 3.0 0.00 0.00 0.00 39 1022.6
20260507083537 38 306 1.0 2.0 0.00 0.00 0.00 39 1022.6
20260507083045 38 306 1.0 2.0 0.00 0.00 0.00 38 1022.6
20260507082550 38 306 1.0 2.0 0.00 0.00 0.00 38 1022.6
20260507082102 38 306 0.0 2.0 0.00 0.00 0.00 38 1022.5
20260507081549 38 306 0.0 2.0 0.00 0.00 0.00 38 1022.6
20260507081058 38 306 0.0 2.0 0.00 0.00 0.00 38 1022.5
20260507080606 38 286 0.0 3.0 0.00 0.00 0.00 38 1022.5
20260507080005 39 286 2.0 3.0 0.00 0.00 0.00 38 1022.4
20260507075601 39 336 1.0 2.0 0.00 0.00 0.00 38 1022.5
20260507075005 39 336 0.0 2.0 0.00 0.00 0.00 37 1022.5
20260507074601 39 355 0.0 3.0 0.00 0.00 0.00 37 1022.4
20260507074051 39 355 2.0 3.0 0.00 0.00 0.00 37 1022.5
20260507073557 40 338 1.0 2.0 0.00 0.00 0.00 36 1022.5
20260507073048 40 328 0.0 2.0 0.00 0.00 0.00 36 1022.6
20260507072539 40 311 1.0 3.0 0.00 0.00 0.00 36 1022.7
20260507072049 40 12 1.0 4.0 0.00 0.00 0.00 36 1022.6
20260507071608 40 9 3.0 4.0 0.00 0.00 0.00 36 1022.5
20260507071102 41 15 2.0 8.0 0.00 0.00 0.00 36 1022.5
20260507070551 41 10 4.0 9.0 0.00 0.00 0.00 36 1022.4
20260507070059 41 24 5.0 9.0 0.00 0.00 0.00 36 1022.4
20260507065608 41 19 4.0 8.0 0.00 0.00 0.00 35 1022.3
20260507065008 41 355 4.0 8.0 0.00 0.00 0.00 36 1022.4
20260507064600 41 16 3.0 6.0 0.00 0.00 0.00 35 1022.5
20260507064005 41 36 2.0 6.0 0.00 0.00 0.00 35 1022.5
20260507063558 41 49 3.0 6.0 0.00 0.00 0.00 35 1022.5
20260507063048 41 51 3.0 6.0 0.00 0.00 0.00 35 1022.4
20260507062555 41 33 3.0 5.0 0.00 0.00 0.00 35 1022.4
20260507062048 41 47 3.0 5.0 0.00 0.00 0.00 35 1022.4
20260507061559 41 38 1.0 4.0 0.00 0.00 0.00 34 1022.4
20260507061100 42 18 2.0 4.0 0.00 0.00 0.00 34 1022.3
20260507060502 42 5 3.0 4.0 0.00 0.00 0.00 34 1022.2
20260507060007 43 344 2.0 3.0 0.00 0.00 0.00 33 1022.2
20260507055603 43 306 1.0 3.0 0.00 0.00 0.00 33 1022.3
20260507055005 43 319 2.0 5.0 0.00 0.00 0.00 33 1022.1
20260507054602 44 317 3.0 5.0 0.00 0.00 0.00 33 1022.1
20260507054103 44 323 3.0 5.0 0.00 0.00 0.00 33 1022.0
20260507053505 44 322 2.0 4.0 0.00 0.00 0.00 32 1022.0
20260507053129 45 302 2.0 7.0 0.00 0.00 0.00 32 1022.0
20260507052501 45 303 4.0 6.0 0.00 0.00 0.00 32 1022.0
20260507052056 45 325 4.0 6.0 0.00 0.00 0.00 32 1022.0
20260507051555 45 302 3.0 8.0 0.00 0.00 0.00 32 1021.8
20260507051054 45 300 5.0 8.0 0.00 0.00 0.00 32 1021.8
20260507050547 46 302 5.0 8.0 0.00 0.00 0.00 31 1021.8
20260507050052 46 309 5.0 9.0 0.00 0.00 0.00 31 1021.7
20260507045558 46 303 5.0 9.0 0.00 0.00 0.00 31 1021.7
20260507045004 46 299 6.0 9.0 0.00 0.00 0.00 31 1021.7
20260507044558 47 307 5.0 9.0 0.00 0.00 0.00 30 1021.6
20260507044104 47 319 5.0 9.0 0.00 0.00 0.00 30 1021.6
20260507043555 47 319 4.0 8.0 0.00 0.00 0.00 30 1021.6
20260507043101 47 321 5.0 11.0 0.00 0.00 0.00 30 1021.6
20260507042552 47 300 6.0 11.0 0.00 0.00 0.00 30 1021.5
20260507042043 47 333 6.0 10.0 0.00 0.00 0.00 30 1021.4
20260507041552 47 317 5.0 9.0 0.00 0.00 0.00 30 1021.4
20260507041059 47 321 5.0 9.0 0.00 0.00 0.00 30 1021.4
20260507040605 48 302 4.0 9.0 0.00 0.00 0.00 29 1021.3
20260507040055 48 319 6.0 9.0 0.00 0.00 0.00 29 1021.3
20260507035604 48 313 6.0 9.0 0.00 0.00 0.00 28 1021.3
20260507035004 49 316 6.0 11.0 0.00 0.00 0.00 28 1021.2
20260507034527 49 299 6.0 14.0 0.00 0.00 0.00 28 1021.1
20260507034002 49 315 8.0 14.0 0.00 0.00 0.00 27 1021.0
20260507033511 49 295 9.0 14.0 0.00 0.00 0.00 27 1020.9
20260507033006 49 304 9.0 13.0 0.00 0.00 0.00 27 1020.8
20260507032509 50 317 9.0 14.0 0.00 0.00 0.00 27 1020.8
20260507032102 50 320 9.0 14.0 0.00 0.00 0.00 26 1020.8
20260507031555 50 295 10.0 14.0 0.00 0.00 0.00 26 1020.8
20260507031101 50 321 7.0 13.0 0.00 0.00 0.00 25 1020.7
20260507030551 51 319 8.0 14.0 0.00 0.00 0.00 25 1020.6
20260507030058 51 311 9.0 14.0 0.00 0.00 0.00 24 1020.6
20260507025548 51 326 8.0 14.0 0.00 0.00 0.00 24 1020.5
20260507025039 52 317 9.0 15.0 0.00 0.00 0.00 23 1020.5
20260507024550 52 329 10.0 15.0 0.00 0.00 0.00 23 1020.5
20260507024038 52 329 10.0 16.0 0.00 0.00 0.00 23 1020.3
20260507023543 52 295 11.0 16.0 0.00 0.00 0.00 22 1020.4
20260507023048 52 342 8.0 15.0 0.00 0.00 0.00 22 1020.3
20260507022557 52 271 10.0 18.0 0.00 0.00 0.00 22 1020.4
20260507022047 53 317 10.0 20.0 0.00 0.00 0.00 22 1020.1
20260507021553 53 311 10.0 18.0 0.00 0.00 0.00 22 1020.0
20260507021100 53 322 11.0 18.0 0.00 0.00 0.00 21 1019.9
20260507020502 54 317 11.0 17.0 0.00 0.00 0.00 21 1019.8
20260507020006 54 321 12.0 16.0 0.00 0.00 0.00 22 1019.9
20260507015559 54 310 11.0 17.0 0.00 0.00 0.00 21 1019.9
20260507015004 55 317 11.0 17.0 0.00 0.00 0.00 22 1019.9
20260507014612 55 299 8.0 17.0 0.00 0.00 0.00 22 1019.8
20260507014103 56 315 10.0 17.0 0.00 0.00 0.00 22 1019.8
20260507013505 56 330 8.0 16.0 0.00 0.00 0.00 22 1019.7
20260507013103 56 333 11.0 15.0 0.00 0.00 0.00 22 1019.6
20260507012508 57 321 9.0 18.0 0.00 0.00 0.00 22 1019.5
20260507012100 57 316 10.0 18.0 0.00 0.00 0.00 22 1019.5
20260507011504 57 333 9.0 19.0 0.00 0.00 0.00 22 1019.3
20260507011056 57 340 10.0 19.0 0.00 0.00 0.00 22 1019.4
20260507010547 57 340 12.0 20.0 0.00 0.00 0.00 21 1019.3
20260507010104 57 355 13.0 20.0 0.00 0.00 0.00 21 1019.2
20260507005545 58 325 11.0 20.0 0.00 0.00 0.00 22 1019.1
20260507005053 58 331 13.0 20.0 0.00 0.00 0.00 21 1019.1
20260507004612 58 323 14.0 20.0 0.00 0.00 0.00 21 1019.0
20260507004105 58 342 13.0 22.0 0.00 0.00 0.00 21 1018.9
20260507003555 58 337 14.0 22.0 0.00 0.00 0.00 22 1018.9
20260507003105 58 15 12.0 21.0 0.00 0.00 0.00 22 1018.9
20260507002555 58 319 14.0 20.0 0.00 0.00 0.00 22 1019.0
20260507002101 58 355 13.0 21.0 0.00 0.00 0.00 21 1019.0
20260507001555 58 311 13.0 22.0 0.00 0.00 0.00 20 1018.9
20260507001043 59 307 14.0 21.0 0.00 0.00 0.00 18 1018.8
20260507000550 59 324 11.0 24.0 0.00 0.00 0.00 21 1018.7
20260507000057 59 348 15.0 24.0 0.00 0.00 0.00 21 1018.6
20260506235605 59 294 15.0 27.0 0.00 0.00 0.00 21 1018.6
20260506235054 59 340 16.0 27.0 0.00 0.00 0.00 22 1018.5
20260506234603 59 308 17.0 26.0 0.00 0.00 0.00 20 1018.4
20260506234055 59 340 16.0 25.0 0.00 0.00 0.00 19 1018.3
20260506233600 59 333 14.0 26.0 0.00 0.00 0.00 22 1018.2
20260506233055 59 340 16.0 30.0 0.00 0.00 0.00 21 1018.2
20260506232555 59 349 18.0 30.0 0.00 0.00 0.00 22 1018.2
20260506232102 60 321 14.0 25.0 0.00 0.00 0.00 23 1018.3
20260506231553 59 336 16.0 26.0 0.00 0.00 0.00 22 1018.2
20260506231105 60 303 16.0 26.0 0.00 0.00 0.00 23 1018.1
20260506230552 60 344 17.0 25.0 0.00 0.00 0.00 24 1018.1
20260506230058 60 319 14.0 26.0 0.00 0.00 0.00 23 1018.1
20260506225550 60 15 12.0 26.0 0.00 0.00 0.00 25 1018.0
20260506225039 60 327 16.0 27.0 0.00 0.00 0.00 25 1018.0
20260506224547 60 324 15.0 27.0 0.00 0.00 0.00 25 1017.9
20260506224039 60 360 15.0 26.0 0.00 0.00 0.00 24 1017.9
20260506223545 61 297 13.0 26.0 0.00 0.00 0.00 21 1017.6
20260506223049 61 311 14.0 28.0 0.00 0.00 0.00 19 1017.8
20260506222558 61 313 17.0 27.0 0.00 0.00 0.00 20 1017.6
20260506222047 61 338 15.0 24.0 0.00 0.00 0.00 24 1017.8
20260506221555 60 307 14.0 24.0 0.00 0.00 0.00 24 1017.7
20260506221100 60 311 16.0 23.0 0.00 0.00 0.00 26 1017.7
20260506220502 60 348 15.0 23.0 0.00 0.00 0.00 26 1017.7
20260506220057 60 317 14.0 25.0 0.00 0.00 0.00 28 1017.7
20260506215604 61 308 13.0 25.0 0.00 0.00 0.00 28 1017.8
20260506215054 61 342 14.0 26.0 0.00 0.00 0.00 26 1017.8
20260506214551 60 301 17.0 31.0 0.00 0.00 0.00 25 1017.7
20260506214052 60 327 17.0 31.0 0.00 0.00 0.00 25 1017.7
20260506213558 59 302 12.0 23.0 0.00 0.00 0.00 26 1017.7
20260506213104 59 293 15.0 29.0 0.00 0.00 0.00 26 1017.8
20260506212555 59 296 18.0 29.0 0.00 0.00 0.00 27 1017.7
20260506212046 58 306 16.0 26.0 0.00 0.00 0.00 30 1017.7
20260506211553 57 332 19.0 28.0 0.00 0.00 0.00 30 1017.8
20260506211043 57 320 17.0 28.0 0.00 0.00 0.00 30 1017.8
20260506210532 57 315 14.0 24.0 0.00 0.00 0.00 30 1017.8
20260506210041 57 319 17.0 24.0 0.00 0.00 0.00 32 1017.8
20260506205547 57 311 12.0 24.0 0.00 0.00 0.00 32 1017.7
20260506205058 57 300 15.0 24.0 0.00 0.00 0.00 34 1017.7
20260506204550 57 291 11.0 22.0 0.00 0.00 0.00 35 1017.8
20260506204052 57 296 10.0 21.0 0.00 0.00 0.00 36 1017.7
20260506203546 57 302 14.0 21.0 0.00 0.00 0.00 35 1017.8
20260506203033 57 319 12.0 21.0 0.00 0.00 0.00 35 1017.8
20260506202541 58 306 13.0 25.0 0.00 0.00 0.00 34 1017.9
20260506202047 58 297 10.0 23.0 0.00 0.00 0.00 34 1017.7
20260506201555 57 291 14.0 23.0 0.00 0.00 0.00 35 1017.7
20260506201100 57 330 15.0 22.0 0.00 0.00 0.00 35 1017.7
20260506200504 57 311 15.0 23.0 0.00 0.00 0.00 35 1017.8
20260506200105 58 315 14.0 23.0 0.00 0.00 0.00 34 1017.8
20260506195604 58 285 15.0 26.0 0.00 0.00 0.00 35 1017.6
20260506195057 58 312 17.0 26.0 0.00 0.00 0.00 33 1017.6
20260506194608 58 319 18.0 28.0 0.00 0.00 0.00 31 1017.6
20260506194004 58 322 19.0 28.0 0.00 0.00 0.00 29 1017.6
20260506193559 59 325 16.0 28.0 0.00 0.00 0.00 31 1017.7
20260506193002 59 287 14.0 33.0 0.00 0.00 0.00 30 1017.6
20260506192557 58 339 17.0 33.0 0.00 0.00 0.00 34 1017.5
20260506192051 58 302 15.0 26.0 0.00 0.00 0.00 33 1017.4
20260506191607 58 325 15.0 26.0 0.00 0.00 0.00 34 1017.6
20260506191105 58 333 16.0 26.0 0.00 0.00 0.00 35 1017.5
20260506190505 57 309 13.0 24.0 0.00 0.00 0.00 39 1017.5
20260506190100 55 323 15.0 28.0 0.00 0.00 0.00 42 1017.7
20260506185501 54 310 15.0 23.0 0.00 0.00 0.00 44 1017.8
20260506185058 53 360 14.0 23.0 0.00 0.00 0.00 46 1017.9
20260506184551 51 349 16.0 28.0 0.00 0.00 0.00 49 1018.0
20260506184056 50 320 16.0 29.0 0.00 0.00 0.00 52 1018.1
20260506183602 50 338 17.0 29.0 0.00 0.00 0.00 52 1018.4
20260506183006 50 341 20.0 33.0 0.00 0.00 0.00 51 1018.6
20260506182602 51 316 20.0 35.0 0.00 0.00 0.00 50 1018.6
20260506182002 51 344 21.0 36.0 0.00 0.00 0.00 50 1018.4
20260506181602 51 5 20.0 36.0 0.00 0.00 0.00 51 1018.5
20260506181104 51 338 22.0 33.0 0.00 0.00 0.00 51 1018.3
20260506180507 53 342 18.0 35.0 0.00 0.00 0.00 50 1018.2
20260506180116 54 323 20.0 33.0 0.00 0.00 0.00 48 1018.1
20260506175558 53 319 22.0 33.0 0.00 0.00 0.00 48 1017.9
20260506175045 54 311 21.0 34.0 0.00 0.00 0.00 48 1017.9
20260506174553 54 329 15.0 36.0 0.00 0.00 0.00 44 1017.8
20260506174059 55 306 22.0 36.0 0.00 0.00 0.00 43 1017.5
20260506173502 57 283 14.0 29.0 0.00 0.00 0.00 36 1017.4
20260506173134 58 282 13.0 23.0 0.00 0.00 0.00 35 1016.9
20260506172500 59 279 12.0 21.0 0.00 0.00 0.00 34 1017.0
20260506172056 58 289 11.0 21.0 0.00 0.00 0.00 35 1016.8
20260506171547 57 300 8.0 15.0 0.00 0.00 0.00 37 1016.9
20260506171055 58 273 8.0 12.0 0.00 0.00 0.00 38 1016.9
20260506170548 58 278 5.0 14.0 0.00 0.00 0.00 37 1016.9
20260506170052 58 226 7.0 14.0 0.00 0.00 0.00 38 1016.8
20260506165542 57 236 5.0 16.0 0.00 0.00 0.00 39 1016.9
20260506165033 57 299 11.0 18.0 0.00 0.00 0.00 40 1016.8
20260506164540 56 281 8.0 18.0 0.00 0.00 0.00 40 1016.8